Delavan, Wisconsin, United States (53115)
Lat: 42.63N, Lon: 88.64W
Wx Zone: WIZ070
Local Info
Past Weather Observations for Today

NOTE: This archive is for the closest National Weather Service station to Delavan. Information may differ from the station used for current weather conditions.

Click here for Long-term Archive

Time Weather Temperature Dewpoint Humidity Pressure Winds Precip Visibility
11:55
Mostly Cloudy
82°F / 28°C 73°F / 23°C 74% 29.95 in
(1014 mb)
SW 11.5 mph
(SW 19 kph)
- 10SM
11:35
Partly Cloudy
84°F / 29°C 73°F / 23°C 70% 29.95 in
(1014 mb)
SW 10.4 mph
(SW 17 kph)
- 10SM
11:15
Partly Cloudy
82°F / 28°C 72°F / 22°C 70% 29.95 in
(1014 mb)
SW 13.8 mph
(SW 22 kph)
- 10SM
10:55
Mostly Cloudy
82°F / 28°C 72°F / 22°C 70% 29.98 in
(1015 mb)
SW 15 mph
(SW 24 kph)
- 10SM
10:35
Mostly Cloudy
81°F / 27°C 70°F / 21°C 70% 29.98 in
(1015 mb)
SW 11.5 mph
(SW 19 kph)
- 10SM
10:15
Partly Cloudy
81°F / 27°C 70°F / 21°C 70% 29.98 in
(1015 mb)
SW 16.1 mph
(SW 26 kph)
- 10SM
09:55
Partly Cloudy
81°F / 27°C 70°F / 21°C 70% 29.98 in
(1015 mb)
SW 11.5 mph
(SW 19 kph)
- 10SM
09:35
Partly Cloudy
79°F / 26°C 68°F / 20°C 70% 29.98 in
(1015 mb)
SW 11.5 mph
(SW 19 kph)
- 10SM
09:15
Mostly Cloudy
79°F / 26°C 68°F / 20°C 70% 29.98 in
(1015 mb)
SW 12.7 mph
(SW 20 kph)
- 10SM
08:55
Partly Cloudy
77°F / 25°C 68°F / 20°C 74% 29.98 in
(1015 mb)
SW 10.4 mph
(SW 17 kph)
- 10SM
08:35
Clear
75°F / 24°C 66°F / 19°C 74% 29.98 in
(1015 mb)
SW 15 mph
(SW 24 kph)
- 10SM
08:15
Clear
75°F / 24°C 66°F / 19°C 74% 29.98 in
(1015 mb)
SW 8.1 mph
(SW 13 kph)
- 10SM
07:55
Clear
73°F / 23°C 66°F / 19°C 78% 29.98 in
(1015 mb)
SSE 10.4 mph
(SSE 17 kph)
- 10SM
07:35
Clear
73°F / 23°C 66°F / 19°C 78% 30.01 in
(1016 mb)
SSE 6.9 mph
(SSE 11 kph)
- 10SM
07:15
Clear
73°F / 23°C 66°F / 19°C 78% 30.01 in
(1016 mb)
SSE 13.8 mph
(SSE 22 kph)
- 10SM
06:55
Clear
72°F / 22°C 64°F / 18°C 78% 30.01 in
(1016 mb)
SSE 13.8 mph
(SSE 22 kph)
- 10SM
06:35
Clear
72°F / 22°C 64°F / 18°C 78% 30.01 in
(1016 mb)
SSE 12.7 mph
(SSE 20 kph)
- 10SM
06:15
Clear
70°F / 21°C 64°F / 18°C 83% 30.01 in
(1016 mb)
S 9.2 mph
(S 15 kph)
- 10SM
05:55
Clear
70°F / 21°C 64°F / 18°C 83% 30.01 in
(1016 mb)
SSE 8.1 mph
(SSE 13 kph)
- 10SM
05:35
Clear
68°F / 20°C 64°F / 18°C 88% 30.01 in
(1016 mb)
SSE 9.2 mph
(SSE 15 kph)
- 10SM
05:15
Clear
68°F / 20°C 64°F / 18°C 88% 30.01 in
(1016 mb)
S 9.2 mph
(S 15 kph)
- 10SM
04:55
Clear
68°F / 20°C 64°F / 18°C 88% 30.04 in
(1017 mb)
S 8.1 mph
(S 13 kph)
- 10SM
04:35
Partly Cloudy
68°F / 20°C 64°F / 18°C 88% 30.04 in
(1017 mb)
S 5.8 mph
(S 9 kph)
- 10SM
04:15
Partly Cloudy
68°F / 20°C 64°F / 18°C 88% 30.04 in
(1017 mb)
S 4.6 mph
(S 7 kph)
- 10SM
03:55
Clear
66°F / 19°C 64°F / 18°C 94% 30.04 in
(1017 mb)
S 3.5 mph
(S 6 kph)
- 10SM
03:35
Mostly Cloudy
68°F / 20°C 64°F / 18°C 88% 30.04 in
(1017 mb)
SW 4.6 mph
(SW 7 kph)
- 10SM
03:15
Mostly Cloudy
68°F / 20°C 64°F / 18°C 88% 30.04 in
(1017 mb)
SSE 5.8 mph
(SSE 9 kph)
- 10SM
02:55
Clear
66°F / 19°C 64°F / 18°C 94% 30.04 in
(1017 mb)
S 5.8 mph
(S 9 kph)
- 10SM
02:35
Clear
66°F / 19°C 64°F / 18°C 94% 30.04 in
(1017 mb)
SW 5.8 mph
(SW 9 kph)
- 10SM
02:15
Clear
68°F / 20°C 64°F / 18°C 88% 30.04 in
(1017 mb)
SW 6.9 mph
(SW 11 kph)
- 10SM
01:55
Clear
68°F / 20°C 64°F / 18°C 88% 30.04 in
(1017 mb)
S 6.9 mph
(S 11 kph)
- 10SM
01:35
Clear
68°F / 20°C 64°F / 18°C 88% 30.04 in
(1017 mb)
SSE 5.8 mph
(SSE 9 kph)
- 10SM
01:15
Clear
68°F / 20°C 64°F / 18°C 88% 30.04 in
(1017 mb)
S 5.8 mph
(S 9 kph)
- 10SM
00:55
Clear
66°F / 19°C 64°F / 18°C 94% 30.04 in
(1017 mb)
S 3.5 mph
(S 6 kph)
- 10SM
00:35
Clear
64°F / 18°C 63°F / 17°C 94% 30.06 in
(1018 mb)
SSE 4.6 mph
(SSE 7 kph)
- 10SM
00:15
Clear
64°F / 18°C 63°F / 17°C 94% 30.06 in
(1018 mb)
Calm - 7SM
Time Weather Temperature Dewpoint Humidity Pressure Winds Precip Visibility


Weather for websites

WeatherForYou.com, LLC is not responsible for any damages or problems caused by this service. Current weather conditions are obtained from the closest station including government and personal stations which may have varying degrees of accuracy. Weather forecasts are derived from the NOAA NDFD. Like all things, this site belongs to Jesus Christ... He just trusts me to maintain it. If you have any questions or comments email webmaster@weatherforyou.com

Copyright © 2014, WeatherForYou.com LLC. All rights reserved.